Year,Month,Day,Hour,Minute,Value (Times are PST for temperature in C)
2017,08,04,00,00,20.80
2017,08,04,00,01,20.80
2017,08,04,00,02,20.80
2017,08,04,00,03,20.80
2017,08,04,00,04,20.80
2017,08,04,00,05,20.80
2017,08,04,00,06,20.80
2017,08,04,00,07,20.70
2017,08,04,00,08,20.70
2017,08,04,00,09,20.70
2017,08,04,00,10,20.70
2017,08,04,00,11,20.70
2017,08,04,00,12,20.70
2017,08,04,00,13,20.70
2017,08,04,00,14,20.60
2017,08,04,00,15,20.60
2017,08,04,00,16,20.60
2017,08,04,00,17,20.60
2017,08,04,00,18,20.60
2017,08,04,00,19,20.60
2017,08,04,00,20,20.60
2017,08,04,00,21,20.60
2017,08,04,00,22,20.50
2017,08,04,00,23,20.50
2017,08,04,00,24,20.50
2017,08,04,00,25,20.50
2017,08,04,00,26,20.50
2017,08,04,00,27,20.40
2017,08,04,00,28,20.40
2017,08,04,00,29,20.40
2017,08,04,00,30,20.40
2017,08,04,00,31,20.40
2017,08,04,00,32,20.40
2017,08,04,00,33,20.40
2017,08,04,00,34,20.30
2017,08,04,00,35,20.30
2017,08,04,00,36,20.30
2017,08,04,00,37,20.30
2017,08,04,00,38,20.30
2017,08,04,00,39,20.30
2017,08,04,00,40,20.20
2017,08,04,00,41,20.20
2017,08,04,00,42,20.20
2017,08,04,00,43,20.20
2017,08,04,00,44,20.20
2017,08,04,00,45,20.10
2017,08,04,00,46,20.10
2017,08,04,00,47,20.10
2017,08,04,00,48,20.10
2017,08,04,00,49,20.00
2017,08,04,00,50,20.00
2017,08,04,00,51,19.90
2017,08,04,00,52,19.90
2017,08,04,00,53,19.90
2017,08,04,00,54,19.80
2017,08,04,00,55,19.80
2017,08,04,00,56,19.80
2017,08,04,00,57,19.70
2017,08,04,00,58,19.70
2017,08,04,00,59,19.70
2017,08,04,01,00,19.70
2017,08,04,01,01,19.60
2017,08,04,01,02,19.60
2017,08,04,01,03,19.60
2017,08,04,01,04,19.60
2017,08,04,01,05,19.50
2017,08,04,01,06,19.50
2017,08,04,01,07,19.40
2017,08,04,01,08,19.40
2017,08,04,01,09,19.40
2017,08,04,01,10,19.40
2017,08,04,01,11,19.30
2017,08,04,01,12,19.30
2017,08,04,01,13,19.30
2017,08,04,01,14,19.30
2017,08,04,01,15,19.20
2017,08,04,01,16,19.20
2017,08,04,01,17,19.20
2017,08,04,01,18,19.20
2017,08,04,01,19,19.20
2017,08,04,01,20,19.20
2017,08,04,01,21,19.10
2017,08,04,01,22,19.10
2017,08,04,01,23,19.10
2017,08,04,01,24,19.10
2017,08,04,01,25,19.10
2017,08,04,01,26,19.10
2017,08,04,01,27,19.10
2017,08,04,01,28,19.00
2017,08,04,01,29,19.00
2017,08,04,01,30,19.00
2017,08,04,01,31,19.00
2017,08,04,01,32,18.90
2017,08,04,01,33,18.90
2017,08,04,01,34,18.90
2017,08,04,01,35,18.80
2017,08,04,01,36,18.80
2017,08,04,01,37,18.80
2017,08,04,01,38,18.80
2017,08,04,01,39,18.80
2017,08,04,01,40,18.80
2017,08,04,01,41,18.80
2017,08,04,01,42,18.70
2017,08,04,01,43,18.70
2017,08,04,01,44,18.70
2017,08,04,01,45,18.70
2017,08,04,01,46,18.70
2017,08,04,01,47,18.60
2017,08,04,01,48,18.60
2017,08,04,01,49,18.60
2017,08,04,01,50,18.60
2017,08,04,01,51,18.60
2017,08,04,01,52,18.60
2017,08,04,01,53,18.50
2017,08,04,01,54,18.50
2017,08,04,01,55,18.50
2017,08,04,01,56,18.50
2017,08,04,01,57,18.40
2017,08,04,01,58,18.40
2017,08,04,01,59,18.40
2017,08,04,02,00,18.40
2017,08,04,02,01,18.30
2017,08,04,02,02,18.30
2017,08,04,02,03,18.30
2017,08,04,02,04,18.30
2017,08,04,02,05,18.30
2017,08,04,02,06,18.30
2017,08,04,02,07,18.30
2017,08,04,02,08,18.20
2017,08,04,02,09,18.20
2017,08,04,02,10,18.20
2017,08,04,02,11,18.20
2017,08,04,02,12,18.20
2017,08,04,02,13,18.10
2017,08,04,02,14,18.10
2017,08,04,02,15,18.10
2017,08,04,02,16,18.10
2017,08,04,02,17,18.10
2017,08,04,02,18,18.10
2017,08,04,02,19,18.00
2017,08,04,02,20,18.00
2017,08,04,02,21,18.00
2017,08,04,02,22,18.00
2017,08,04,02,23,18.00
2017,08,04,02,24,18.00
2017,08,04,02,25,17.90
2017,08,04,02,26,17.90
2017,08,04,02,27,17.90
2017,08,04,02,28,17.90
2017,08,04,02,29,17.90
2017,08,04,02,30,17.90
2017,08,04,02,31,17.90
2017,08,04,02,32,17.80
2017,08,04,02,33,17.80
2017,08,04,02,34,17.80
2017,08,04,02,35,17.80
2017,08,04,02,36,17.80
2017,08,04,02,37,17.80
2017,08,04,02,38,17.80
2017,08,04,02,39,17.80
2017,08,04,02,40,17.80
2017,08,04,02,41,17.80
2017,08,04,02,42,17.80
2017,08,04,02,43,17.80
2017,08,04,02,44,17.80
2017,08,04,02,45,17.80
2017,08,04,02,46,17.80
2017,08,04,02,47,17.80
2017,08,04,02,48,17.80
2017,08,04,02,49,17.80
2017,08,04,02,50,17.80
2017,08,04,02,51,17.80
2017,08,04,02,52,17.80
2017,08,04,02,53,17.80
2017,08,04,02,54,17.80
2017,08,04,02,55,17.80
2017,08,04,02,56,17.80
2017,08,04,02,57,17.80
2017,08,04,02,58,17.80
2017,08,04,02,59,17.80
2017,08,04,03,00,17.80
2017,08,04,03,01,17.80
2017,08,04,03,02,17.80
2017,08,04,03,03,17.80
2017,08,04,03,04,17.80
2017,08,04,03,05,17.80
2017,08,04,03,06,17.80
2017,08,04,03,07,17.80
2017,08,04,03,08,17.80
2017,08,04,03,09,17.80
2017,08,04,03,10,17.80
2017,08,04,03,11,17.80
2017,08,04,03,12,17.80
2017,08,04,03,13,17.80
2017,08,04,03,14,17.80
2017,08,04,03,15,17.80
2017,08,04,03,16,17.80
2017,08,04,03,17,17.80
2017,08,04,03,18,17.70
2017,08,04,03,19,17.70
2017,08,04,03,20,17.70
2017,08,04,03,21,17.70
2017,08,04,03,22,17.70
2017,08,04,03,23,17.70
2017,08,04,03,24,17.70
2017,08,04,03,25,17.70
2017,08,04,03,26,17.70
2017,08,04,03,27,17.70
2017,08,04,03,28,17.70
2017,08,04,03,29,17.70
2017,08,04,03,30,17.70
2017,08,04,03,31,17.70
2017,08,04,03,32,17.70
2017,08,04,03,33,17.70
2017,08,04,03,34,17.70
2017,08,04,03,35,17.70
2017,08,04,03,36,17.70
2017,08,04,03,37,17.70
2017,08,04,03,38,17.70
2017,08,04,03,39,17.70
2017,08,04,03,40,17.70
2017,08,04,03,41,17.60
2017,08,04,03,42,17.60
2017,08,04,03,43,17.60
2017,08,04,03,44,17.60
2017,08,04,03,45,17.60
2017,08,04,03,46,17.60
2017,08,04,03,47,17.60
2017,08,04,03,48,17.60
2017,08,04,03,49,17.60
2017,08,04,03,50,17.60
2017,08,04,03,51,17.60
2017,08,04,03,52,17.60
2017,08,04,03,53,17.60
2017,08,04,03,54,17.60
2017,08,04,03,55,17.60
2017,08,04,03,56,17.60
2017,08,04,03,57,17.60
2017,08,04,03,58,17.60
2017,08,04,03,59,17.60
2017,08,04,04,00,17.60
2017,08,04,04,01,17.60
2017,08,04,04,02,17.60
2017,08,04,04,03,17.60
2017,08,04,04,04,17.60
2017,08,04,04,05,17.60
2017,08,04,04,06,17.60
2017,08,04,04,07,17.60
2017,08,04,04,08,17.60
2017,08,04,04,09,17.60
2017,08,04,04,10,17.60
2017,08,04,04,11,17.60
2017,08,04,04,12,17.50
2017,08,04,04,13,17.50
2017,08,04,04,14,17.50
2017,08,04,04,15,17.40
2017,08,04,04,16,17.40
2017,08,04,04,17,17.40
2017,08,04,04,18,17.40
2017,08,04,04,19,17.40
2017,08,04,04,20,17.40
2017,08,04,04,21,17.40
2017,08,04,04,22,17.40
2017,08,04,04,23,17.40
2017,08,04,04,24,17.40
2017,08,04,04,25,17.40
2017,08,04,04,26,17.40
2017,08,04,04,27,17.40
2017,08,04,04,28,17.40
2017,08,04,04,29,17.30
2017,08,04,04,30,17.30
2017,08,04,04,31,17.30
2017,08,04,04,32,17.30
2017,08,04,04,33,17.30
2017,08,04,04,34,17.30
2017,08,04,04,35,17.30
2017,08,04,04,36,17.30
2017,08,04,04,37,17.30
2017,08,04,04,38,17.30
2017,08,04,04,39,17.30
2017,08,04,04,40,17.30
2017,08,04,04,41,17.30
2017,08,04,04,42,17.20
2017,08,04,04,43,17.20
2017,08,04,04,44,17.20
2017,08,04,04,45,17.20
2017,08,04,04,46,17.20
2017,08,04,04,47,17.20
2017,08,04,04,48,17.20
2017,08,04,04,49,17.10
2017,08,04,04,50,17.10
2017,08,04,04,51,17.10
2017,08,04,04,52,17.10
2017,08,04,04,53,17.10
2017,08,04,04,54,17.10
2017,08,04,04,55,17.10
2017,08,04,04,56,17.10
2017,08,04,04,57,17.10
2017,08,04,04,58,17.10
2017,08,04,04,59,17.00
2017,08,04,05,00,17.00
2017,08,04,05,01,17.00
2017,08,04,05,02,17.00
2017,08,04,05,03,17.00
2017,08,04,05,04,17.00
2017,08,04,05,05,17.00
2017,08,04,05,06,17.00
2017,08,04,05,07,17.00
2017,08,04,05,08,17.00
2017,08,04,05,09,17.00
2017,08,04,05,10,17.00
2017,08,04,05,11,17.00
2017,08,04,05,12,17.00
2017,08,04,05,13,17.00
2017,08,04,05,14,17.00
2017,08,04,05,15,17.00
2017,08,04,05,16,17.10
2017,08,04,05,17,17.10
2017,08,04,05,18,17.00
2017,08,04,05,19,17.00
2017,08,04,05,20,17.00
2017,08,04,05,21,17.00
2017,08,04,05,22,17.00
2017,08,04,05,23,17.00
2017,08,04,05,24,17.10
2017,08,04,05,25,17.10
2017,08,04,05,26,17.10
2017,08,04,05,27,17.10
2017,08,04,05,28,17.10
2017,08,04,05,29,17.00
2017,08,04,05,30,17.00
2017,08,04,05,31,17.00
2017,08,04,05,32,17.00
2017,08,04,05,33,16.90
2017,08,04,05,34,16.90
2017,08,04,05,35,16.90
2017,08,04,05,36,16.90
2017,08,04,05,37,16.90
2017,08,04,05,38,16.90
2017,08,04,05,39,16.90
2017,08,04,05,40,16.90
2017,08,04,05,41,16.90
2017,08,04,05,42,16.80
2017,08,04,05,43,16.80
2017,08,04,05,44,16.80
2017,08,04,05,45,16.80
2017,08,04,05,46,16.80
2017,08,04,05,47,16.80
2017,08,04,05,48,16.80
2017,08,04,05,49,16.80
2017,08,04,05,50,16.80
2017,08,04,05,51,16.80
2017,08,04,05,52,16.70
2017,08,04,05,53,16.70
2017,08,04,05,54,16.70
2017,08,04,05,55,16.70
2017,08,04,05,56,16.70
2017,08,04,05,57,16.70
2017,08,04,05,58,16.70
2017,08,04,05,59,16.60
2017,08,04,06,00,16.60
2017,08,04,06,01,16.60
2017,08,04,06,02,16.60
2017,08,04,06,03,16.60
2017,08,04,06,04,16.60
2017,08,04,06,05,16.60
2017,08,04,06,06,16.60
2017,08,04,06,07,16.60
2017,08,04,06,08,16.60
2017,08,04,06,09,16.60
2017,08,04,06,10,16.60
2017,08,04,06,11,16.60
2017,08,04,06,12,16.60
2017,08,04,06,13,16.60
2017,08,04,06,14,16.50
2017,08,04,06,15,16.50
2017,08,04,06,16,16.50
2017,08,04,06,17,16.50
2017,08,04,06,18,16.50
2017,08,04,06,19,16.50
2017,08,04,06,20,16.50
2017,08,04,06,21,16.50
2017,08,04,06,22,16.50
2017,08,04,06,23,16.50
2017,08,04,06,24,16.50
2017,08,04,06,25,16.50
2017,08,04,06,26,16.50
2017,08,04,06,27,16.50
2017,08,04,06,28,16.50
2017,08,04,06,29,16.50
2017,08,04,06,30,16.50
2017,08,04,06,31,16.50
2017,08,04,06,32,16.50
2017,08,04,06,33,16.50
2017,08,04,06,34,16.50
2017,08,04,06,35,16.50
2017,08,04,06,36,16.50
2017,08,04,06,37,16.50
2017,08,04,06,38,16.60
2017,08,04,06,39,16.50
2017,08,04,06,40,16.60
2017,08,04,06,41,16.60
2017,08,04,06,42,16.60
2017,08,04,06,43,16.60
2017,08,04,06,44,16.60
2017,08,04,06,45,16.70
2017,08,04,06,46,16.70
2017,08,04,06,47,16.70
2017,08,04,06,48,16.80
2017,08,04,06,49,16.80
2017,08,04,06,50,16.80
2017,08,04,06,51,16.80
2017,08,04,06,52,16.90
2017,08,04,06,53,16.90
2017,08,04,06,54,16.90
2017,08,04,06,55,17.00
2017,08,04,06,56,17.00
2017,08,04,06,57,17.00
2017,08,04,06,58,17.10
2017,08,04,06,59,17.10
2017,08,04,07,00,17.10
2017,08,04,07,01,17.10
2017,08,04,07,02,17.10
2017,08,04,07,03,17.10
2017,08,04,07,04,17.10
2017,08,04,07,05,17.20
2017,08,04,07,06,17.20
2017,08,04,07,07,17.20
2017,08,04,07,08,17.30
2017,08,04,07,09,17.30
2017,08,04,07,10,17.30
2017,08,04,07,11,17.30
2017,08,04,07,12,17.40
2017,08,04,07,13,17.40
2017,08,04,07,14,17.40
2017,08,04,07,15,17.40
2017,08,04,07,16,17.40
2017,08,04,07,17,17.40
2017,08,04,07,18,17.40
2017,08,04,07,19,17.40
2017,08,04,07,20,17.40
2017,08,04,07,21,17.50
2017,08,04,07,22,17.50
2017,08,04,07,23,17.50
2017,08,04,07,24,17.50
2017,08,04,07,25,17.50
2017,08,04,07,26,17.50
2017,08,04,07,27,17.60
2017,08,04,07,28,17.60
2017,08,04,07,29,17.60
2017,08,04,07,30,17.60
2017,08,04,07,31,17.60
2017,08,04,07,32,17.70
2017,08,04,07,33,17.70
2017,08,04,07,34,17.70
2017,08,04,07,35,17.70
2017,08,04,07,36,17.70
2017,08,04,07,37,17.80
2017,08,04,07,38,17.80
2017,08,04,07,39,17.80
2017,08,04,07,40,17.90
2017,08,04,07,41,17.90
2017,08,04,07,42,17.90
2017,08,04,07,43,17.90
2017,08,04,07,44,18.00
2017,08,04,07,45,18.10
2017,08,04,07,46,18.10
2017,08,04,07,47,18.10
2017,08,04,07,48,18.20
2017,08,04,07,49,18.20
2017,08,04,07,50,18.20
2017,08,04,07,51,18.20
2017,08,04,07,52,18.30
2017,08,04,07,53,18.30
2017,08,04,07,54,18.30
2017,08,04,07,55,18.40
2017,08,04,07,56,18.40
2017,08,04,07,57,18.50
2017,08,04,07,58,18.50
2017,08,04,07,59,18.50
2017,08,04,08,00,18.50
2017,08,04,08,01,18.60
2017,08,04,08,02,18.60
2017,08,04,08,03,18.60
2017,08,04,08,04,18.70
2017,08,04,08,05,18.70
2017,08,04,08,06,18.70
2017,08,04,08,07,18.70
2017,08,04,08,08,18.70
2017,08,04,08,09,18.80
2017,08,04,08,10,18.80
2017,08,04,08,11,18.90
2017,08,04,08,12,18.90
2017,08,04,08,13,19.00
2017,08,04,08,14,19.00
2017,08,04,08,15,19.10
2017,08,04,08,16,19.10
2017,08,04,08,17,19.20
2017,08,04,08,18,19.20
2017,08,04,08,19,19.30
2017,08,04,08,20,19.30
2017,08,04,08,21,19.30
2017,08,04,08,22,19.40
2017,08,04,08,23,19.40
2017,08,04,08,24,19.50
2017,08,04,08,25,19.50
2017,08,04,08,26,19.60
2017,08,04,08,27,19.60
2017,08,04,08,28,19.60
2017,08,04,08,29,19.70
2017,08,04,08,30,19.70
2017,08,04,08,31,19.80
2017,08,04,08,32,19.80
2017,08,04,08,33,19.80
2017,08,04,08,34,19.80
2017,08,04,08,35,19.80
2017,08,04,08,36,19.80
2017,08,04,08,37,19.90
2017,08,04,08,38,19.90
2017,08,04,08,39,19.90
2017,08,04,08,40,19.90
2017,08,04,08,41,20.00
2017,08,04,08,42,20.00
2017,08,04,08,43,20.10
2017,08,04,08,44,20.10
2017,08,04,08,45,20.10
2017,08,04,08,46,20.10
2017,08,04,08,47,20.20
2017,08,04,08,48,20.20
2017,08,04,08,49,20.20
2017,08,04,08,50,20.20
2017,08,04,08,51,20.20
2017,08,04,08,52,20.20
2017,08,04,08,53,20.30
2017,08,04,08,54,20.30
2017,08,04,08,55,20.30
2017,08,04,08,56,20.30
2017,08,04,08,57,20.30
2017,08,04,08,58,20.40
2017,08,04,08,59,20.40
2017,08,04,09,00,20.40
2017,08,04,09,01,20.40
2017,08,04,09,02,20.50
2017,08,04,09,03,20.50
2017,08,04,09,04,20.50
2017,08,04,09,05,20.60
2017,08,04,09,06,20.60
2017,08,04,09,07,20.60
2017,08,04,09,08,20.70
2017,08,04,09,09,20.70
2017,08,04,09,10,20.80
2017,08,04,09,11,20.80
2017,08,04,09,12,20.90
2017,08,04,09,13,20.90
2017,08,04,09,14,21.00
2017,08,04,09,15,21.00
2017,08,04,09,16,21.10
2017,08,04,09,17,21.10
2017,08,04,09,18,21.10
2017,08,04,09,19,21.20
2017,08,04,09,20,21.30
2017,08,04,09,21,21.30
2017,08,04,09,22,21.40
2017,08,04,09,23,21.50
2017,08,04,09,24,21.50
2017,08,04,09,25,21.50
2017,08,04,09,26,21.60
2017,08,04,09,27,21.60
2017,08,04,09,28,21.70
2017,08,04,09,29,21.70
2017,08,04,09,30,21.80
2017,08,04,09,31,21.80
2017,08,04,09,32,21.90
2017,08,04,09,33,21.90
2017,08,04,09,34,22.00
2017,08,04,09,35,22.10
2017,08,04,09,36,22.10
2017,08,04,09,37,22.20
2017,08,04,09,38,22.20
2017,08,04,09,39,22.30
2017,08,04,09,40,22.30
2017,08,04,09,41,22.40
2017,08,04,09,42,22.40
2017,08,04,09,43,22.50
2017,08,04,09,44,22.50
2017,08,04,09,45,22.60
2017,08,04,09,46,22.60
2017,08,04,09,47,22.60
2017,08,04,09,48,22.60
2017,08,04,09,49,22.70
2017,08,04,09,50,22.70
2017,08,04,09,51,22.70
2017,08,04,09,52,22.80
2017,08,04,09,53,22.80
2017,08,04,09,54,22.80
2017,08,04,09,55,22.80
2017,08,04,09,56,22.80
2017,08,04,09,57,22.90
2017,08,04,09,58,22.90
2017,08,04,09,59,23.00
2017,08,04,10,00,23.00
2017,08,04,10,01,23.00
2017,08,04,10,02,23.10
2017,08,04,10,03,23.10
2017,08,04,10,04,23.20
2017,08,04,10,05,23.20
2017,08,04,10,06,23.30
2017,08,04,10,07,23.30
2017,08,04,10,08,23.40
2017,08,04,10,09,23.40
2017,08,04,10,10,23.40
2017,08,04,10,11,23.50
2017,08,04,10,12,23.50
2017,08,04,10,13,23.60
2017,08,04,10,14,23.60
2017,08,04,10,15,23.60
2017,08,04,10,16,23.60
2017,08,04,10,17,23.60
2017,08,04,10,18,23.60
2017,08,04,10,19,23.60
2017,08,04,10,20,23.60
2017,08,04,10,21,23.60
2017,08,04,10,22,23.60
2017,08,04,10,23,23.60
2017,08,04,10,24,23.70
2017,08,04,10,25,23.70
2017,08,04,10,26,23.80
2017,08,04,10,27,23.80
2017,08,04,10,28,23.80
2017,08,04,10,29,23.70
2017,08,04,10,30,23.70
2017,08,04,10,31,23.70
2017,08,04,10,32,23.70
2017,08,04,10,33,23.70
2017,08,04,10,34,23.70
2017,08,04,10,35,23.70
2017,08,04,10,36,23.80
2017,08,04,10,37,23.80
2017,08,04,10,38,23.80
2017,08,04,10,39,23.90
2017,08,04,10,40,24.00
2017,08,04,10,41,24.00
2017,08,04,10,42,24.00
2017,08,04,10,43,24.00
2017,08,04,10,44,24.00
2017,08,04,10,45,24.10
2017,08,04,10,46,24.10
2017,08,04,10,47,24.10
2017,08,04,10,48,24.10
2017,08,04,10,49,24.20
2017,08,04,10,50,24.20
2017,08,04,10,51,24.20
2017,08,04,10,52,24.30
2017,08,04,10,53,24.30
2017,08,04,10,54,24.20
2017,08,04,10,55,24.20
2017,08,04,10,56,24.10
2017,08,04,10,57,23.90
2017,08,04,10,58,23.80
2017,08,04,10,59,23.80
2017,08,04,11,00,23.80
2017,08,04,11,01,23.80
2017,08,04,11,02,23.80
2017,08,04,11,03,23.80
2017,08,04,11,04,23.90
2017,08,04,11,05,23.90
2017,08,04,11,06,24.00
2017,08,04,11,07,24.00
2017,08,04,11,08,24.00
2017,08,04,11,09,24.00
2017,08,04,11,10,24.00
2017,08,04,11,11,24.00
2017,08,04,11,12,24.00
2017,08,04,11,13,24.10
2017,08,04,11,14,24.10
2017,08,04,11,15,24.10
2017,08,04,11,16,24.10
2017,08,04,11,17,24.10
2017,08,04,11,18,24.10
2017,08,04,11,19,24.10
2017,08,04,11,20,24.10
2017,08,04,11,21,24.20
2017,08,04,11,22,24.30
2017,08,04,11,23,24.30
2017,08,04,11,24,24.30
2017,08,04,11,25,24.30
2017,08,04,11,26,24.40
2017,08,04,11,27,24.40
2017,08,04,11,28,24.40
2017,08,04,11,29,24.50
2017,08,04,11,30,24.50
2017,08,04,11,31,24.50
2017,08,04,11,32,24.60
2017,08,04,11,33,24.70
2017,08,04,11,34,24.80
2017,08,04,11,35,24.90
2017,08,04,11,36,25.00
2017,08,04,11,37,25.10
2017,08,04,11,38,25.20
2017,08,04,11,39,25.20
2017,08,04,11,40,25.30
2017,08,04,11,41,25.40
2017,08,04,11,42,25.40
2017,08,04,11,43,25.40
2017,08,04,11,44,25.50
2017,08,04,11,45,25.60
2017,08,04,11,46,25.60
2017,08,04,11,47,25.60
2017,08,04,11,48,25.70
2017,08,04,11,49,25.70
2017,08,04,11,50,25.70
2017,08,04,11,51,25.70
2017,08,04,11,52,25.70
2017,08,04,11,53,25.60
2017,08,04,11,54,25.70
2017,08,04,11,55,25.70
2017,08,04,11,56,25.80
2017,08,04,11,57,25.90
2017,08,04,11,58,25.90
2017,08,04,11,59,25.90
2017,08,04,12,00,26.00
2017,08,04,12,01,26.00
2017,08,04,12,02,26.00
2017,08,04,12,03,26.00
2017,08,04,12,04,26.00
2017,08,04,12,05,26.00
2017,08,04,12,06,26.00
2017,08,04,12,07,26.10
2017,08,04,12,08,26.10
2017,08,04,12,09,26.20
2017,08,04,12,10,26.20
2017,08,04,12,11,26.30
2017,08,04,12,12,26.30
2017,08,04,12,13,26.40
2017,08,04,12,14,26.50
2017,08,04,12,15,26.60
2017,08,04,12,16,26.60
2017,08,04,12,17,26.70
2017,08,04,12,18,26.80
2017,08,04,12,19,26.80
2017,08,04,12,20,26.70
2017,08,04,12,21,26.60
2017,08,04,12,22,26.60
2017,08,04,12,23,26.60
2017,08,04,12,24,26.60
2017,08,04,12,25,26.50
2017,08,04,12,26,26.40
2017,08,04,12,27,26.40
2017,08,04,12,28,26.40
2017,08,04,12,29,26.50
2017,08,04,12,30,26.50
2017,08,04,12,31,26.50
2017,08,04,12,32,26.50
2017,08,04,12,33,26.50
2017,08,04,12,34,26.40
2017,08,04,12,35,26.40
2017,08,04,12,36,26.30
2017,08,04,12,37,26.30
2017,08,04,12,38,26.30
2017,08,04,12,39,26.30
2017,08,04,12,40,26.20
2017,08,04,12,41,26.10
2017,08,04,12,42,26.00
2017,08,04,12,43,25.90
2017,08,04,12,44,25.90
2017,08,04,12,45,25.90
2017,08,04,12,46,25.90
2017,08,04,12,47,25.90
2017,08,04,12,48,26.00
2017,08,04,12,49,26.10
2017,08,04,12,50,26.10
2017,08,04,12,51,26.10
2017,08,04,12,52,26.10
2017,08,04,12,53,26.20
2017,08,04,12,54,26.20
2017,08,04,12,55,26.20
2017,08,04,12,56,26.30
2017,08,04,12,57,26.30
2017,08,04,12,58,26.30
2017,08,04,12,59,26.30
2017,08,04,13,00,26.30
2017,08,04,13,01,26.30
2017,08,04,13,02,26.30
2017,08,04,13,03,26.30
2017,08,04,13,04,26.30
2017,08,04,13,05,26.40
2017,08,04,13,06,26.50
2017,08,04,13,07,26.60
2017,08,04,13,08,26.70
2017,08,04,13,09,26.70
2017,08,04,13,10,26.80
2017,08,04,13,11,26.70
2017,08,04,13,12,26.60
2017,08,04,13,13,26.50
2017,08,04,13,14,26.40
2017,08,04,13,15,26.30
2017,08,04,13,16,26.30
2017,08,04,13,17,26.30
2017,08,04,13,18,26.20
2017,08,04,13,19,26.10
2017,08,04,13,20,26.00
2017,08,04,13,21,26.00
2017,08,04,13,22,25.90
2017,08,04,13,23,25.90
2017,08,04,13,24,25.80
2017,08,04,13,25,25.80
2017,08,04,13,26,25.80
2017,08,04,13,27,25.80
2017,08,04,13,28,25.80
2017,08,04,13,29,25.70
2017,08,04,13,30,25.70
2017,08,04,13,31,25.70
2017,08,04,13,32,25.60
2017,08,04,13,33,25.50
2017,08,04,13,34,25.40
2017,08,04,13,35,25.40
2017,08,04,13,36,25.30
2017,08,04,13,37,25.20
2017,08,04,13,38,25.20
2017,08,04,13,39,25.10
2017,08,04,13,40,25.00
2017,08,04,13,41,25.00
2017,08,04,13,42,24.90
2017,08,04,13,43,24.80
2017,08,04,13,44,24.80
2017,08,04,13,45,24.80
2017,08,04,13,46,24.80
2017,08,04,13,47,24.70
2017,08,04,13,48,24.70
2017,08,04,13,49,24.70
2017,08,04,13,50,24.70
2017,08,04,13,51,24.70
2017,08,04,13,52,24.70
2017,08,04,13,53,24.70
2017,08,04,13,54,24.70
2017,08,04,13,55,24.60
2017,08,04,13,56,24.60
2017,08,04,13,57,24.60
2017,08,04,13,58,24.60
2017,08,04,13,59,24.50
2017,08,04,14,00,24.50
2017,08,04,14,01,24.40
2017,08,04,14,02,24.40
2017,08,04,14,03,24.40
2017,08,04,14,04,24.30
2017,08,04,14,05,24.30
2017,08,04,14,06,24.30
2017,08,04,14,07,24.30
2017,08,04,14,08,24.30
2017,08,04,14,09,24.30
2017,08,04,14,10,24.30
2017,08,04,14,11,24.30
2017,08,04,14,12,24.30
2017,08,04,14,13,24.30
2017,08,04,14,14,24.30
2017,08,04,14,15,24.30
2017,08,04,14,16,24.30
2017,08,04,14,17,24.40
2017,08,04,14,18,24.40
2017,08,04,14,19,24.50
2017,08,04,14,20,24.60
2017,08,04,14,21,24.60
2017,08,04,14,22,24.60
2017,08,04,14,23,24.60
2017,08,04,14,24,24.60
2017,08,04,14,25,24.60
2017,08,04,14,26,24.60
2017,08,04,14,27,24.60
2017,08,04,14,28,24.60
2017,08,04,14,29,24.70
2017,08,04,14,30,24.70
2017,08,04,14,31,24.80
2017,08,04,14,32,24.80
2017,08,04,14,33,24.90
2017,08,04,14,34,24.90
2017,08,04,14,35,25.00
2017,08,04,14,36,25.10
2017,08,04,14,37,25.20
2017,08,04,14,38,25.20
2017,08,04,14,39,25.20
2017,08,04,14,40,25.30
2017,08,04,14,41,25.30
2017,08,04,14,42,25.30
2017,08,04,14,43,25.30
2017,08,04,14,44,25.20
2017,08,04,14,45,25.20
2017,08,04,14,46,25.20
2017,08,04,14,47,25.20
2017,08,04,14,48,25.20
2017,08,04,14,49,25.20
2017,08,04,14,50,25.20
2017,08,04,14,51,25.20
2017,08,04,14,52,25.30
2017,08,04,14,53,25.30
2017,08,04,14,54,25.40
2017,08,04,14,55,25.40
2017,08,04,14,56,25.30
2017,08,04,14,57,25.30
2017,08,04,14,58,25.40
2017,08,04,14,59,25.40
2017,08,04,15,00,25.50
2017,08,04,15,01,25.60
2017,08,04,15,02,25.60
2017,08,04,15,03,25.70
2017,08,04,15,04,25.80
2017,08,04,15,05,25.80
2017,08,04,15,06,25.80
2017,08,04,15,07,25.80
2017,08,04,15,08,25.80
2017,08,04,15,09,25.80
2017,08,04,15,10,25.80
2017,08,04,15,11,25.80
2017,08,04,15,12,25.90
2017,08,04,15,13,25.90
2017,08,04,15,14,26.00
2017,08,04,15,15,26.10
2017,08,04,15,16,26.20
2017,08,04,15,17,26.30
2017,08,04,15,18,26.30
2017,08,04,15,19,26.40
2017,08,04,15,20,26.50
2017,08,04,15,21,26.60
2017,08,04,15,22,26.70
2017,08,04,15,23,26.80
2017,08,04,15,24,26.90
2017,08,04,15,25,27.00
2017,08,04,15,26,27.00
2017,08,04,15,27,27.10
2017,08,04,15,28,27.10
2017,08,04,15,29,27.10
2017,08,04,15,30,27.10
2017,08,04,15,31,27.10
2017,08,04,15,32,27.10
2017,08,04,15,33,27.10
2017,08,04,15,34,27.10
2017,08,04,15,35,27.10
2017,08,04,15,36,27.00
2017,08,04,15,37,27.00
2017,08,04,15,38,26.90
2017,08,04,15,39,26.90
2017,08,04,15,40,26.80
2017,08,04,15,41,26.80
2017,08,04,15,42,26.80
2017,08,04,15,43,26.80
2017,08,04,15,44,26.70
2017,08,04,15,45,26.70
2017,08,04,15,46,26.70
2017,08,04,15,47,26.70
2017,08,04,15,48,26.70
2017,08,04,15,49,26.70
2017,08,04,15,50,26.70
2017,08,04,15,51,26.80
2017,08,04,15,52,26.80
2017,08,04,15,53,26.80
2017,08,04,15,54,26.80
2017,08,04,15,55,26.70
2017,08,04,15,56,26.70
2017,08,04,15,57,26.80
2017,08,04,15,58,26.80
2017,08,04,15,59,26.80
2017,08,04,16,00,26.80
2017,08,04,16,01,26.80
2017,08,04,16,02,26.80
2017,08,04,16,03,26.90
2017,08,04,16,04,26.90
2017,08,04,16,05,26.90
2017,08,04,16,06,27.00
2017,08,04,16,07,27.10
2017,08,04,16,08,27.10
2017,08,04,16,09,27.20
2017,08,04,16,10,27.20
2017,08,04,16,11,27.20
2017,08,04,16,12,27.20
2017,08,04,16,13,27.20
2017,08,04,16,14,27.20
2017,08,04,16,15,27.20
2017,08,04,16,16,27.10
2017,08,04,16,17,27.10
2017,08,04,16,18,27.00
2017,08,04,16,19,27.00
2017,08,04,16,20,26.90
2017,08,04,16,21,26.90
2017,08,04,16,22,26.80
2017,08,04,16,23,26.70
2017,08,04,16,24,26.70
2017,08,04,16,25,26.70
2017,08,04,16,26,26.60
2017,08,04,16,27,26.60
2017,08,04,16,28,26.60
2017,08,04,16,29,26.60
2017,08,04,16,30,26.60
2017,08,04,16,31,26.50
2017,08,04,16,32,26.50
2017,08,04,16,33,26.50
2017,08,04,16,34,26.50
2017,08,04,16,35,26.60
2017,08,04,16,36,26.60
2017,08,04,16,37,26.60
2017,08,04,16,38,26.60
2017,08,04,16,39,26.60
2017,08,04,16,40,26.60
2017,08,04,16,41,26.60
2017,08,04,16,42,26.60
2017,08,04,16,43,26.60
2017,08,04,16,44,26.70
2017,08,04,16,45,26.70
2017,08,04,16,46,26.80
2017,08,04,16,47,26.80
2017,08,04,16,48,26.80
2017,08,04,16,49,26.80
2017,08,04,16,50,26.80
2017,08,04,16,51,26.80
2017,08,04,16,52,26.70
2017,08,04,16,53,26.70
2017,08,04,16,54,26.70
2017,08,04,16,55,26.60
2017,08,04,16,56,26.60
2017,08,04,16,57,26.50
2017,08,04,16,58,26.50
2017,08,04,16,59,26.40
2017,08,04,17,00,26.40
2017,08,04,17,01,26.40
2017,08,04,17,02,26.40
2017,08,04,17,03,26.30
2017,08,04,17,04,26.30
2017,08,04,17,05,26.30
2017,08,04,17,06,26.30
2017,08,04,17,07,26.20
2017,08,04,17,08,26.10
2017,08,04,17,09,26.10
2017,08,04,17,10,26.10
2017,08,04,17,11,26.00
2017,08,04,17,12,26.00
2017,08,04,17,13,26.00
2017,08,04,17,14,26.00
2017,08,04,17,15,26.00
2017,08,04,17,16,26.00
2017,08,04,17,17,26.00
2017,08,04,17,18,26.00
2017,08,04,17,19,26.00